Regional Weather Roundup
Issued by NWS Mobile, AL

Home | Current Version | Previous Version | Text Only | Print | Product List | Glossary On
Versions: 1 2 3 4 5 6 7 8 9 10 11 12 13 14 15 16 17 18 19 20 21 22 23 24 25 26 27 28 29 30 31 32 33 34 35 36 37
000
ASUS44 KMOB 231210
RWRMOB
REGIONAL WEATHER ROUNDUP
NATIONAL WEATHER SERVICE MOBILE AL
700 AM CDT THU OCT 23 2014

NOTE: "FAIR" INDICATES FEW OR NO CLOUDS BELOW 12,000 FEET WITH NO
      SIGNIFICANT WEATHER AND/OR OBSTRUCTIONS TO VISIBILITY.

  * THESE STATIONS ARE PART OF THE UNIVERSITY OF SOUTH ALABAMA
    MESONET AND ARE NOT UNDER NWS OR FAA QUALITY CONTROL.

ALZ061>064-231300-
COASTAL ALABAMA

CITY           SKY/WX    TMP DP  RH WIND       PRES   REMARKS
MOBILE REG APT PTCLDY    48  44  86 NE8       30.09R
6HR MIN TEMP:  48; 6HR MAX TEMP:  53;

BROOKLEY FIELD CLEAR     54  48  80 NE10      30.10R
6HR MIN TEMP:  47; 6HR MAX TEMP:  56;

USA CAMPUS*      N/A     48  45  87 CALM      30.10S
DOG RIVER*     NOT AVBL


CITY           SKY/WX    TMP DP  RH WIND       PRES   REMARKS
MOUNT VERNON*    N/A     37  37 100 CALM      30.11S
SARALAND*      NOT AVBL
BAY MINETTE*   NOT AVBL
LOXLEY*          N/A     46  43  87 N6        30.10R
ROBERTSDALE*     N/A     46  43  87 CALM      30.09R
FAIRHOPE*        N/A     48  45  87 NE8       30.07S
ELBERTA*         N/A     46  45  93 N7        30.08R
FOLEY*           N/A     45  43  93 CALM      30.07S
GRAND BAY*       N/A     45  45 100 N2        30.06S
DAUPHIN ISLND* NOT AVBL
BON SCOUR NWR* NOT AVBL
GULF SHORES    CLEAR     48  44  85 N5        30.08R

$$

ALZ051>060-231300-
INTERIOR SOUTHWEST AND SOUTH CENTRAL ALABAMA

CITY           SKY/WX    TMP DP  RH WIND       PRES   REMARKS
GREENVILLE     CLEAR     41  38  89 N6        30.11R
6HR MIN TEMP:  41; 6HR MAX TEMP:  51;

EVERGREEN      CLEAR     40  38  93 CALM      30.11S
6HR MIN TEMP:  40; 6HR MAX TEMP:  47;

CASTLEBERRY*   NOT AVBL
ATMORE*          N/A     45  43  93 VRB5      30.11R
DIXIE*           N/A     43  43 100 CALM      30.07S
ANDALUSIA/OPP  CLEAR     48  41  76 CALM      30.10R
6HR MIN TEMP:  48; 6HR MAX TEMP:  57;

ANDALUSIA*       N/A     46  43  87 NE6       30.09R
FLORALA APT    CLEAR     41  39  93 CALM      30.11R
6HR MIN TEMP:  41; 6HR MAX TEMP:  52;

FLORALA*         N/A     45  43  93 CALM      30.07S

$$

FLZ001>006-231300-
WESTERN FLORIDA PANHANDLE

CITY           SKY/WX    TMP DP  RH WIND       PRES   REMARKS
PENSACOLA      CLEAR     53  45  74 N7        30.08R
6HR MIN TEMP:  53; 6HR MAX TEMP:  59;

NAS PENSACOLA  PTCLDY    50  46  86 NE7       30.07R
6HR MIN TEMP:  48; 6HR MAX TEMP:  56;

MILTON         CLEAR     46  41  82 N7        30.10R
6HR MIN TEMP:  46; 6HR MAX TEMP:  52;

WHTNG S FIELD  CLEAR     50  43  77 NE7       30.10R
6HR MIN TEMP:  45; 6HR MAX TEMP:  54;



CITY           SKY/WX    TMP DP  RH WIND       PRES   REMARKS
WALNUT HILL*   NOT AVBL
JAY*             N/A     46  43  87 CALM      30.11R
DUKE FIELD     CLEAR     42  40  93 N2        30.09R
CRESTVIEW      CLEAR     43  42  97 CALM      30.11R
6HR MIN TEMP:  40; 6HR MAX TEMP:  49;

VALPARAISO     CLEAR     48  44  84 N9        30.08R
6HR MIN TEMP:  48; 6HR MAX TEMP:  52;

DESTIN         CLEAR     56  48  74 NE6       30.08R
6HR MIN TEMP:  55; 6HR MAX TEMP:  61;


$$

MSZ076-079-231300-
INTERIOR SOUTHEAST MISSISSIPPI

CITY           SKY/WX    TMP DP  RH WIND       PRES   REMARKS
LEAKESVILLE*     N/A     45  41  87 NE3       30.10R
AGRICOLA*      NOT AVBL

$$

MARINE OBSERVATIONS

STATION/POSITION TIME  TEMP    WIND        PRES    WAVE
                       AIR SEA DIR/SP/G            HT/PER
                 (UTC) (F)     (DEG/KT/KT) (MB)    (FT/S)
PASCAGOULA       1200   54      30/  6/  9 1018.2R
PETIT BOIS ISLND 1200   61      50/ 17/ 20 1018.1R
KATRINA CUT      1100   63      70/ 17     1018.0S
CEDAR POINT      1100   62      70/ 14     1018.3R
E DAUPHIN ISLAND 1100   62      60/ 16/ 18 1018.0F
MIDDLE BAY LIGHT 1100   59      60/ 20     1017.6R
USCG MOBILE BAY  1200   54 75   30/  8/ 12 1017.6S
STATE DOCKS      1200   53 74              1018.6S
MEAHER PARK      1100   52      20/  5     1019.3R
FORT MORGAN      1200   60      80/ 17/ 19 1017.4S
12 S ORANGE BCH  1200   65 78   30/ 16/ 19 1017.3R   3/ 5
PENSACOLA BAY    1200   57 72   40/  3/  7 1018.7R
64 S DAUPHIN ISL 1139   71 78   60/ 16/ 19 1017.5R   4/ 6
67 S FORT MORGAN 1100   71                   N/A

$$

SELECTED LOCATIONS ACROSS THE REGION

CITY           SKY/WX    TMP DP  RH WIND       PRES   REMARKS
NEW ORLEANS    CLEAR     62  50  64 NE7       30.07R
GULFPORT       CLEAR     50  44  80 NE6       30.08R
PASCAGOULA AP  CLEAR     45  42  89 N5        30.09R
PASCAGOULA*      N/A     50  45  81 N5        30.08R
HATTIESBURG    CLEAR     42  41  96 CALM      30.13R
LAUREL         CLEAR     45  39  81 N5        30.13R
MERIDIAN       CLEAR     41  39  93 CALM      30.14R
JACKSON        PTCLDY    44  41  89 CALM      30.14R
MONTGOMERY     CLEAR     45  41  86 N5        30.14R
TROY           CLEAR     37  35  92 CALM      30.13R
KINSTON*       NOT AVBL
GENEVA*          N/A     45  43  93 CALM      30.12R
ASHFORD*         N/A     46  43  87 NE6       30.09R
DOTHAN         CLEAR     44  42  93 NE6       30.13R
PANAMA CITY    CLEAR     47  43  86 NW3       30.07R

$$




USA.gov is the U.S. government's official web portal to all federal, state and local government web resources and services.